[[{"header":{"parameterUnit":"m.s-1","parameterCategory":1,"la1":30.2991,"la2":30.254,"lo1":-89.0895,"lo2":-89.0444,"dy":0.0017,"dx":0.0017,"nx":28,"ny":28,"refTime":"2025-05-15T03:00:00:Z","depth":0,"parameterNumber":2,"parameterNumberName":"U-component_of_WINDS"},"data":[0,0,0,0,0,0,0,0,0,0,0,0,0,0,0,0,0,0,0,0,0,0,0,0,0,0,0,0,0,0,0,0,0,0,0,0,0,0,0,0,0,0,0,0,0,0,0,0,0,0,0,0,0,0,0,0,0,0,0.7882,0.7883,0,0.7986,0.7988,0.7989,0.7987,0.7986,0.7984,0.7983,0.8092,0.8096,0.8101,0,0,0,0,0,0,0,0,0,0,0,0,0,0.7683,0.7687,0.7882,0.7883,0.7884,0.7986,0.7988,0.7989,0.7987,0.7986,0.7984,0.7982,0.8091,0.8096,0.8101,0,0,0,0,0,0,0,0,0,0,0,0,0,0.7777,0.7688,0.7882,0.7896,0.7898,0.7986,0.7988,0.7989,0.7988,0.7986,0.7984,0.7982,0.8089,0.8095,0.8102,0.8183,0,0,0.8121,0.8124,0,0,0,0,0,0,0,0,0.7772,0.7784,0.7892,0.7895,0.7898,0.7971,0.7958,0.8054,0.7988,0.7954,0.7983,0.7981,0.8054,0.8063,0.8087,0.8188,0.8193,0.8122,0.8125,0.8128,0.813,0,0,0,0,0,0,0,0.7765,0.778,0.7923,0.7894,0.7897,0.7898,0.7909,0.7976,0.8015,0.7957,0.7957,0.7969,0.8055,0.8081,0.809,0.8194,0.8121,0.8127,0.8131,0.8133,0.8367,0.8369,0,0,0,0,0,0,0.7755,0.7774,0.792,0.7926,0.7828,0.7903,0.7915,0.795,0.8014,0.8021,0.7971,0.7969,0.8072,0.8083,0.8094,0.8193,0.8128,0.8134,0.8138,0.8365,0.8368,0.837,0,0,0,0,0,0,0.7751,0.7768,0.7916,0.785,0.7869,0.7909,0.7948,0.7953,0.7979,0.8024,0.8031,0.799,0.807,0.8085,0.8161,0.8197,0.8137,0.8143,0.8362,0.8366,0.8369,0.8392,0,0,0,0,0,0,0.7745,0.7767,0.7797,0.7851,0.7873,0.798,0.795,0.7957,0.799,0.7988,0.8045,0.8052,0.807,0.8151,0.8167,0.8205,0.8148,0.8359,0.8364,0.8368,0.8389,0.8396,0.8403,0,0,0,0,0,0.7738,0.78,0.7799,0.7817,0.7912,0.7982,0.7995,0.8013,0.7993,0.8024,0.8053,0.805,0.819,0.8159,0.8177,0.8217,0.8357,0.8362,0.8367,0.8385,0.8395,0.8403,0,0,0,0,0,0,0.7751,0.7808,0.7807,0.7888,0.793,0.7982,0.8022,0.8023,0.8072,0.8069,0.809,0.8103,0.8179,0.8205,0.8169,0.8299,0.8271,0.828,0.8279,0.8288,0.8295,0.8287,0.8153,0,0,0,0,0,0.7763,0.7815,0.7862,0.7929,0.795,0.7982,0.8014,0.8024,0.8069,0.8088,0.8122,0.8166,0.822,0.8256,0.8308,0.8392,0.8405,0.8429,0.8436,0.8442,0.845,0.8496,0.8508,0.8388,0.8388,0.8388,0,0,0.7788,0.7826,0.7857,0.7932,0.7966,0.802,0.7998,0.8055,0.8096,0.8097,0.817,0.8197,0.8248,0.8328,0.8366,0.8353,0.8485,0.8449,0.8453,0.8458,0.8503,0.8514,0.8525,0.8392,0.8391,0.839,0,0,0.7863,0.7896,0.7956,0.799,0.8042,0.8063,0.8077,0.8129,0.8147,0.822,0.8222,0.8271,0.8364,0.84,0.843,0.8519,0.8518,0.8535,0.8573,0.8619,0.8628,0.8637,0.8668,0.8679,0.8543,0.8543,0.8543,0,0.7888,0.7969,0.7986,0.8045,0.8078,0.808,0.8141,0.8174,0.824,0.8263,0.8248,0.8364,0.8399,0.8488,0.8509,0.8534,0.8552,0.8529,0.8625,0.8634,0.8642,0.8673,0.8685,0.8545,0.8544,0.8544,0.8544,0,0.7998,0.8054,0.8096,0.8159,0.8197,0.8256,0.8284,0.832,0.8327,0.835,0.8426,0.8467,0.8528,0.855,0.8558,0.8641,0.8631,0.862,0.8593,0.8655,0.8684,0.8696,0.8547,0.8547,0.8546,0.8546,0,0,0.8083,0.8155,0.817,0.8199,0.8256,0.83,0.836,0.8418,0.8449,0.8495,0.8546,0.8624,0.8615,0.8649,0.8662,0.8702,0.8769,0.8686,0.8688,0.87,0.8863,0.8871,0.8884,0.8769,0.8771,0.8773,0.8859,0,0.8163,0.8268,0.8286,0.8379,0.8431,0.8434,0.8486,0.8527,0.855,0.8599,0.8625,0.868,0.8663,0.8684,0.8723,0.8753,0.8802,0.8747,0.8817,0.8819,0.8804,0.89,0.8908,0.8987,0.887,0.8872,0.8874,0,0.8271,0.8319,0.8416,0.8466,0.8489,0.8536,0.8591,0.8637,0.8684,0.8698,0.8737,0.8744,0.8807,0.8777,0.8864,0.8825,0.8855,0.8874,0.8878,0.8885,0.885,0.891,0.9013,0.9025,0.8892,0.889,0.8889,0,0.8323,0.8412,0.8482,0.8507,0.8567,0.86,0.8627,0.8671,0.8706,0.8754,0.8777,0.8833,0.8863,0.8906,0.8929,0.8905,0.9015,0.8986,0.9029,0.9028,0.9052,0.905,0.9162,0.9071,0.9071,0.9071,0.907,0,0.8411,0.8471,0.8506,0.8549,0.8617,0.8637,0.8703,0.8729,0.8769,0.8818,0.8824,0.887,0.8897,0.8947,0.8965,0.9035,0.9049,0.9062,0.9066,0.9062,0.906,0.9082,0.9077,0.9074,0.9073,0.9072,0.9072,0,0.8481,0.8507,0.8584,0.8634,0.8649,0.8696,0.874,0.8782,0.8805,0.8867,0.8883,0.8919,0.8978,0.9005,0.9078,0.909,0.917,0.917,0.9154,0.9155,0.9197,0.9193,0.9326,0.9345,0.9241,0.9242,0.9243,0,0.8535,0.8581,0.8637,0.867,0.8697,0.875,0.8785,0.8807,0.8843,0.89,0.8936,0.8995,0.9044,0.9138,0.9172,0.9228,0.9229,0.9272,0.9238,0.9232,0.9231,0.9228,0.9233,0.9279,0.928,0.9281,0.9281,0,0.8629,0.864,0.869,0.8744,0.8786,0.883,0.8873,0.89,0.8929,0.8969,0.903,0.9067,0.9142,0.9201,0.9259,0.9287,0.929,0.9292,0.9305,0.9301,0.9289,0.9296,0.9171,0.9289,0.9288,0.9287,0.9287,0.9287,0.8693,0.8734,0.878,0.8835,0.887,0.8911,0.8953,0.8981,0.9032,0.9094,0.9104,0.9168,0.9214,0.9293,0.9323,0.9374,0.9364,0.9383,0.9388,0.9392,0.9395,0.9281,0.9385,0.9385,0.9385,0.9385,0.9384,0,0.8788,0.8817,0.8868,0.8928,0.8972,0.897,0.9018,0.9055,0.9111,0.9154,0.9201,0.9271,0.9328,0.9366,0.9424,0.9457,0.946,0.9472,0.947,0.9477,0.94,0.9383,0.9469,0.9469,0.9469,0.9469,0.9469,0.9469,0.8842,0.8911,0.8928,0.9015,0.9044,0.9107,0.9135,0.9172,0.9206,0.9283,0.9331,0.9355,0.9396,0.9457,0.951,0.952,0.9541,0.9553,0.9563,0.9491,0.9482,0.9473,0.9458,0.9558,0.9558,0.9635,0.9636,0.9636]},{"header":{"parameterUnit":"m.s-1","parameterCategory":1,"la1":30.2991,"la2":30.254,"lo1":-89.0895,"lo2":-89.0444,"dy":0.0017,"dx":0.0017,"nx":28,"ny":28,"refTime":"2025-05-15T03:00:00:Z","depth":0,"parameterNumber":3,"parameterNumberName":"V-component_of_WINDS"},"data":[0,0,0,0,0,0,0,0,0,0,0,0,0,0,0,0,0,0,0,0,0,0,0,0,0,0,0,0,0,0,0,0,0,0,0,0,0,0,0,0,0,0,0,0,0,0,0,0,0,0,0,0,0,0,0,0,0,0,5.06,5.0601,0,5.0617,5.0617,5.0617,5.056,5.0558,5.0557,5.0555,5.0569,5.0571,5.0573,0,0,0,0,0,0,0,0,0,0,0,0,0,5.0517,5.0519,5.06,5.0601,5.0601,5.0617,5.0617,5.0617,5.056,5.0558,5.0556,5.0554,5.0568,5.057,5.0573,0,0,0,0,0,0,0,0,0,0,0,0,0,5.0545,5.0519,5.06,5.0574,5.0572,5.0617,5.0617,5.0617,5.0561,5.0558,5.0556,5.0553,5.0567,5.057,5.0573,5.0642,0,0,5.0582,5.0583,0,0,0,0,0,0,0,0,5.0544,5.0548,5.0578,5.0576,5.0574,5.0584,5.0592,5.0625,5.0561,5.0565,5.0555,5.0552,5.0576,5.0578,5.0586,5.0643,5.0643,5.0582,5.0584,5.0585,5.0586,0,0,0,0,0,0,0,5.0542,5.0547,5.0607,5.0579,5.0576,5.0561,5.0562,5.0598,5.0584,5.0565,5.056,5.0563,5.0574,5.0584,5.0586,5.0644,5.0582,5.0585,5.0587,5.0588,5.0758,5.0761,0,0,0,0,0,0,5.0544,5.0546,5.0606,5.0607,5.0552,5.0565,5.0566,5.0583,5.0584,5.0582,5.0566,5.0561,5.058,5.0583,5.0586,5.0668,5.0585,5.0588,5.059,5.0755,5.0759,5.0762,0,0,0,0,0,0,5.0542,5.055,5.0605,5.0576,5.0582,5.0569,5.0589,5.0585,5.0594,5.0585,5.0581,5.0578,5.0578,5.0582,5.0629,5.0668,5.0589,5.0592,5.0752,5.0756,5.076,5.0831,0,0,0,0,0,0,5.054,5.0549,5.0576,5.0577,5.0583,5.0649,5.0591,5.0587,5.06,5.0594,5.0596,5.0593,5.0576,5.0625,5.0632,5.067,5.0594,5.0749,5.0754,5.0759,5.0826,5.0837,5.0848,0,0,0,0,0,5.0537,5.0595,5.0578,5.0585,5.0617,5.0651,5.0655,5.0635,5.0603,5.063,5.0624,5.0593,5.0662,5.063,5.0638,5.0677,5.0746,5.0753,5.0759,5.0821,5.0835,5.0847,0,0,0,0,0,0,5.0598,5.0594,5.0576,5.0635,5.0644,5.0642,5.0674,5.0651,5.0668,5.0662,5.0635,5.0636,5.0688,5.0687,5.0651,5.0744,5.0699,5.0707,5.0743,5.0757,5.0768,5.0767,5.0597,0,0,0,0,0,5.0618,5.0648,5.0642,5.0696,5.0701,5.0687,5.0701,5.0686,5.0693,5.0696,5.0693,5.0701,5.0725,5.0741,5.0761,5.0825,5.0825,5.0856,5.0867,5.0876,5.0883,5.0917,5.0931,5.0782,5.0782,5.0782,0,0,5.0661,5.0662,5.0682,5.0708,5.0713,5.0743,5.0691,5.0725,5.0747,5.0701,5.0746,5.0744,5.0751,5.0807,5.0831,5.0808,5.0924,5.0884,5.0891,5.0894,5.0925,5.0939,5.0952,5.0786,5.0786,5.0785,0,0,5.0753,5.0758,5.0803,5.0809,5.0818,5.0809,5.0819,5.0821,5.0818,5.0863,5.0829,5.0854,5.0895,5.0902,5.0911,5.1007,5.098,5.1014,5.1072,5.1105,5.1117,5.1127,5.1162,5.1175,5.1021,5.1021,5.1021,0,5.0804,5.085,5.0828,5.0866,5.0878,5.0839,5.0884,5.0891,5.0906,5.0915,5.0889,5.094,5.0941,5.0998,5.1022,5.103,5.1041,5.1014,5.1117,5.1127,5.1137,5.1169,5.1182,5.1026,5.1025,5.1025,5.1024,0,5.0913,5.0945,5.098,5.0997,5.1013,5.1053,5.1038,5.1056,5.1039,5.1032,5.1077,5.1078,5.1099,5.1111,5.1094,5.1166,5.1152,5.1122,5.1075,5.1155,5.1186,5.1198,5.1032,5.103,5.1029,5.1028,0,0,5.1044,5.1049,5.1063,5.107,5.1077,5.1101,5.114,5.1161,5.1178,5.1189,5.1221,5.1257,5.123,5.124,5.1223,5.1252,5.1329,5.1218,5.1218,5.1239,5.1409,5.1432,5.1446,5.1311,5.1313,5.1315,5.1408,0,5.1136,5.1204,5.1186,5.1253,5.1282,5.1246,5.128,5.1288,5.1282,5.1305,5.1298,5.1325,5.1287,5.1292,5.132,5.1314,5.1362,5.1307,5.134,5.1341,5.134,5.1462,5.1486,5.1574,5.142,5.1422,5.1423,0,5.1252,5.127,5.1341,5.1344,5.1355,5.1386,5.1405,5.1427,5.1435,5.1429,5.1441,5.1418,5.1455,5.1409,5.146,5.1422,5.1435,5.1434,5.1437,5.1439,5.1388,5.1469,5.1602,5.1615,5.1442,5.144,5.1439,0,5.1341,5.1383,5.1431,5.1438,5.1443,5.1465,5.1468,5.1473,5.1488,5.1503,5.1512,5.1532,5.1543,5.1558,5.1541,5.1508,5.1595,5.1546,5.1591,5.1591,5.1611,5.161,5.1749,5.1618,5.1618,5.1618,5.1617,0,5.1446,5.1491,5.1471,5.1501,5.155,5.1528,5.1577,5.1575,5.1581,5.1608,5.1578,5.1604,5.158,5.1604,5.1591,5.1636,5.1641,5.1636,5.1633,5.164,5.164,5.1648,5.1641,5.1621,5.162,5.162,5.1619,0,5.1555,5.1543,5.1593,5.1594,5.1595,5.1631,5.1631,5.1658,5.1651,5.1686,5.1693,5.1681,5.1709,5.1693,5.172,5.1711,5.177,5.1757,5.1768,5.1765,5.181,5.1806,5.1959,5.1978,5.1835,5.1836,5.1837,0,5.1622,5.1656,5.1661,5.1679,5.1684,5.1712,5.1727,5.1706,5.1723,5.1735,5.176,5.1785,5.1804,5.1849,5.1842,5.1863,5.185,5.1902,5.1853,5.186,5.1852,5.185,5.1854,5.1912,5.1914,5.1916,5.1917,0,5.1744,5.1737,5.1761,5.1782,5.1801,5.1817,5.183,5.1845,5.1825,5.1845,5.1874,5.1888,5.1917,5.1942,5.196,5.1961,5.1936,5.1932,5.1944,5.1952,5.1957,5.1955,5.1796,5.1929,5.1928,5.1927,5.1926,5.1926,5.1835,5.1864,5.1872,5.1899,5.1907,5.192,5.1946,5.1942,5.1966,5.1988,5.1974,5.2008,5.2014,5.2036,5.2041,5.2066,5.2045,5.2061,5.2066,5.207,5.2077,5.1953,5.2069,5.2069,5.2068,5.2068,5.2068,0,5.1956,5.196,5.1985,5.2005,5.2026,5.2001,5.2014,5.2034,5.2064,5.2073,5.2092,5.2125,5.2149,5.2144,5.2166,5.2187,5.2176,5.2193,5.2192,5.2193,5.2094,5.2082,5.2202,5.2202,5.2202,5.2202,5.2202,5.2202,5.2021,5.2069,5.2063,5.2114,5.2117,5.215,5.216,5.2172,5.2179,5.2217,5.2238,5.2235,5.2238,5.226,5.2281,5.2279,5.2289,5.2311,5.2305,5.2213,5.2199,5.2187,5.2176,5.2313,5.2313,5.2401,5.2402,5.2402]}]]